DW7368 Weather Reports


time (UTC)temp
F
wind
direction
speed
knots
gust
knots
rain 1hr
in
rain 24hr
in
rain mn
in
humidity
%
barometer
mb
20260502210110 73 354 2.6 9.6 0.00 0.38 0.21 50 1016.3
20260502204558 72 44 4.3 9.6 0.00 0.82 0.21 51 1016.1
20260502203056 73 33 3.5 7.8 0.00 0.82 0.21 53 1016.3
20260502201555 73 348 3.5 9.6 0.00 0.82 0.21 51 1016.7
20260502200053 73 56 3.5 7.0 0.00 0.82 0.21 51 1016.8
20260502194549 72 343 2.6 9.6 0.00 1.20 0.21 53 1016.9
20260502193049 72 26 3.5 7.8 0.00 1.20 0.21 55 1017.2
20260502191556 71 54 5.2 8.7 0.00 1.20 0.21 53 1017.1
20260502190059 71 26 4.3 9.6 0.00 1.20 0.21 55 1017.0
20260502184553 71 27 3.5 8.7 0.00 1.60 0.21 58 1017.1
20260502183101 70 14 4.3 11.3 0.00 1.60 0.21 58 1016.9
20260502181545 70 358 4.3 10.4 0.00 1.60 0.21 61 1017.1
20260502163027 67 27 3.5 11.3 0.00 1.90 0.21 63 1017.8
20260502161524 66 35 3.5 8.7 0.00 1.90 0.21 65 1017.9
20260502151514 63 54 3.5 9.6 0.00 1.90 0.21 71 1017.7
20260502123040 55 37 2.6 6.1 0.00 1.90 0.21 81 1015.3
20260502121547 54 28 2.6 6.1 0.00 1.90 0.21 82 1015.0
20260502114534 54 51 3.5 7.0 0.00 1.90 0.21 82 1014.7
20260502113032 55 53 3.5 6.1 0.00 1.90 0.21 83 1014.5
20260502111531 55 51 4.3 8.7 0.00 1.90 0.21 84 1014.4
20260502110028 55 55 5.2 9.6 0.00 1.90 0.21 85 1014.2
20260502104527 55 46 4.3 8.7 0.00 1.90 0.21 86 1014.1
20260502103029 55 37 4.3 9.6 0.00 1.90 0.21 86 1013.9
20260502101534 55 56 4.3 8.7 0.00 1.90 0.21 86 1013.8
20260502091516 55 49 3.5 7.0 0.00 1.90 0.21 87 1013.1
20260502070119 55 36 2.6 7.0 0.06 1.88 0.19 89 1012.4
20260502064557 55 21 1.7 5.2 0.09 1.86 0.17 89 1013.0
20260502063057 56 8 2.6 6.1 0.12 1.86 0.17 89 1013.1
20260502061554 56 44 2.6 6.1 0.14 1.84 0.15 89 1012.7
20260502060051 56 36 2.6 5.2 0.13 1.82 0.13 89 1013.0
20260502054550 56 6 0.9 6.1 0.08 1.77 0.08 89 1013.7
20260502053059 56 52 4.3 7.8 0.05 1.74 0.05 89 1013.2
20260502051559 56 27 2.6 5.2 0.02 1.70 0.01 89 1013.3
20260502050043 56 50 3.5 7.0 0.01 1.69 0.00 89 1013.0
20260502044541 56 49 5.2 9.6 0.04 1.69 1.69 88 1012.5
20260502043039 57 56 2.6 9.6 0.08 1.69 1.69 89 1013.0
20260502041557 57 25 5.2 9.6 0.07 1.68 1.68 88 1012.7
20260502040032 58 48 3.5 7.8 0.07 1.68 1.68 89 1012.4
20260502034532 58 36 2.6 6.1 0.04 1.65 1.65 88 1012.6
20260502033031 58 41 3.5 9.6 0.00 1.61 1.61 88 1012.4
20260502031526 58 61 4.3 9.6 0.00 1.61 1.61 88 1012.1
20260502030025 58 64 4.3 8.7 0.00 1.61 1.61 88 1012.0
20260502024524 59 47 4.3 10.4 0.00 1.61 1.61 88 1011.4
20260502023021 59 47 5.2 9.6 0.00 1.61 1.61 88 1011.3
20260502021521 59 47 3.5 7.0 0.00 1.61 1.61 88 1011.2
20260502020019 59 44 4.3 7.0 0.00 1.61 1.61 88 1011.1
20260502014525 59 50 3.5 7.0 0.00 1.61 1.61 88 1010.7
20260502013015 59 43 2.6 5.2 0.00 1.61 1.61 88 1010.3
20260502011514 59 36 2.6 5.2 0.00 1.61 1.61 89 1009.9
20260502010013 59 28 2.6 6.1 0.00 1.61 1.61 89 1008.9
20260502004512 59 34 2.6 5.2 0.01 1.61 1.61 89 1008.4
20260502003010 59 35 2.6 6.1 0.03 1.61 1.61 89 1007.8
20260502001510 59 53 3.5 7.8 0.04 1.61 1.61 89 1007.7
20260502000007 59 51 4.3 8.7 0.07 1.61 1.61 88 1006.8
20260501234504 60 39 5.2 7.8 0.06 1.60 1.60 88 1008.9
20260501233002 60 33 4.3 7.0 0.04 1.58 1.58 88 1010.1
20260501231629 61 32 4.3 7.0 0.04 1.57 1.57 87 1010.7
20260501230059 61 33 3.5 8.7 0.02 1.54 1.54 87 1010.6
20260501224558 62 53 4.3 8.7 0.02 1.54 1.54 87 1010.2
20260501223125 62 20 4.3 9.6 0.02 1.54 1.54 88 1009.4
20260501221555 62 53 5.2 9.6 0.00 1.52 1.52 87 1009.6
20260501220054 62 49 4.3 8.7 0.00 1.52 1.52 88 1008.9
20260501214556 62 18 5.2 8.7 0.00 1.52 1.52 88 1008.6
20260501213057 62 38 5.2 9.6 0.03 1.52 1.52 89 1008.4
20260501211554 62 43 5.2 9.6 0.16 1.52 1.52 90 1008.5